Location: Newark
(34.9500°N, 139.9667°E)
Time: 09:35:53
(UTC+00:00)

Vanguard 1 Rocket - Pass Details

Date: 13 December 2019
Orbit: 650 x 4226 km, 34.3° (Epoch: 17 January)

Event Time Altitude Azimuth Distance (km) Brightness Sun altitude
Rises 10:47:55 0° 243° (WSW) 8,340 13.0 -39.8°
Reaches altitude 10° 10:54:08 10° 242° (WSW) 7,063 12.4 -41.1°
Enters shadow 11:15:04 72° 182° (S) 2,753 9.5 -45.4°
Maximum altitude 11:15:51 73° 163° (SSE) 2,680 - -45.5°
Drops below altitude 10° 11:26:59 10° 81° (E) 3,934 - -47.8°
Sets 11:29:24 0° 79° (E) 4,602 - -48.3°
